| time (UTC) | temp F | wind direction | speed MPH | gust MPH | rain 1hr in | rain 24hr in | rain mn in | humidity % | barometer mb |
| 20260905080605 | 61 | 288 | 7.0 | 13.0 | 0.00 | 0.00 | 0.00 | 41 | 1015.6 |
| 20260905075114 | 61 | 289 | 5.0 | 14.0 | 0.00 | 0.00 | 0.00 | 41 | 1015.5 |
| 20260905074617 | 61 | 290 | 8.0 | 16.0 | 0.00 | 0.00 | 0.00 | 41 | 1015.6 |
| 20260905074120 | 61 | 283 | 8.0 | 17.0 | 0.00 | 0.00 | 0.00 | 41 | 1015.5 |
| 20260905073623 | 61 | 283 | 9.0 | 17.0 | 0.00 | 0.00 | 0.00 | 41 | 1015.5 |
| 20260905073126 | 61 | 289 | 7.0 | 16.0 | 0.00 | 0.00 | 0.00 | 42 | 1015.5 |
| 20260905072629 | 61 | 286 | 8.0 | 16.0 | 0.00 | 0.00 | 0.00 | 42 | 1015.4 |
| 20260905072213 | 62 | 283 | 10.0 | 17.0 | 0.00 | 0.00 | 0.00 | 42 | 1015.5 |
| 20260905072132 | 62 | 283 | 10.0 | 17.0 | 0.00 | 0.00 | 0.00 | 42 | 1015.5 |
| 20260905071138 | 62 | 283 | 11.0 | 19.0 | 0.00 | 0.00 | 0.00 | 42 | 1015.4 |
| 20260905070641 | 62 | 284 | 11.0 | 19.0 | 0.00 | 0.00 | 0.00 | 43 | 1015.3 |
| 20260905065151 | 62 | 284 | 13.0 | 21.0 | 0.00 | 0.00 | 0.00 | 42 | 1015.1 |
| 20260905064156 | 62 | 286 | 12.0 | 17.0 | 0.00 | 0.00 | 0.00 | 43 | 1015.1 |
| 20260905063659 | 62 | 285 | 11.0 | 18.0 | 0.00 | 0.00 | 0.00 | 43 | 1015.1 |
| 20260905063202 | 62 | 282 | 11.0 | 18.0 | 0.00 | 0.00 | 0.00 | 43 | 1015.0 |
| 20260905061711 | 62 | 278 | 10.0 | 17.0 | 0.00 | 0.00 | 0.00 | 45 | 1015.1 |
| 20260905060718 | 62 | 281 | 10.0 | 14.0 | 0.00 | 0.00 | 0.00 | 47 | 1015.0 |
| 20260905060220 | 62 | 281 | 10.0 | 14.0 | 0.00 | 0.00 | 0.00 | 47 | 1015.1 |
| 20260905055723 | 62 | 279 | 9.0 | 14.0 | 0.00 | 0.00 | 0.00 | 48 | 1015.1 |
| 20260905055226 | 62 | 281 | 10.0 | 14.0 | 0.00 | 0.00 | 0.00 | 48 | 1015.1 |
| 20260905054730 | 62 | 278 | 9.0 | 13.0 | 0.00 | 0.00 | 0.00 | 49 | 1015.1 |
| 20260905054232 | 62 | 280 | 9.0 | 14.0 | 0.00 | 0.00 | 0.00 | 50 | 1015.1 |
| 20260905052741 | 61 | 285 | 9.0 | 13.0 | 0.00 | 0.00 | 0.00 | 52 | 1015.1 |
| 20260905052244 | 61 | 283 | 9.0 | 11.0 | 0.00 | 0.00 | 0.00 | 53 | 1015.2 |
| 20260905051747 | 61 | 285 | 7.0 | 12.0 | 0.00 | 0.00 | 0.00 | 54 | 1015.2 |
| 20260905051250 | 61 | 282 | 8.0 | 12.0 | 0.00 | 0.00 | 0.00 | 54 | 1015.2 |
| 20260905050753 | 61 | 283 | 8.0 | 12.0 | 0.00 | 0.00 | 0.00 | 54 | 1015.0 |
| 20260905050256 | 61 | 282 | 8.0 | 13.0 | 0.00 | 0.00 | 0.00 | 55 | 1015.0 |
| 20260905045759 | 61 | 283 | 8.0 | 13.0 | 0.00 | 0.00 | 0.00 | 55 | 1015.0 |
| 20260905045305 | 61 | 278 | 8.0 | 13.0 | 0.00 | 0.00 | 0.00 | 55 | 1014.9 |
| 20260905044805 | 61 | 280 | 9.0 | 13.0 | 0.00 | 0.00 | 0.00 | 56 | 1015.0 |
| 20260905044308 | 61 | 287 | 9.0 | 13.0 | 0.00 | 0.00 | 0.00 | 56 | 1014.8 |
| 20260905043811 | 61 | 282 | 9.0 | 13.0 | 0.00 | 0.00 | 0.00 | 58 | 1014.7 |
| 20260905043314 | 61 | 285 | 8.0 | 12.0 | 0.00 | 0.00 | 0.00 | 59 | 1014.7 |
| 20260905042818 | 61 | 285 | 8.0 | 12.0 | 0.00 | 0.00 | 0.00 | 61 | 1014.7 |
| 20260905042320 | 60 | 294 | 8.0 | 12.0 | 0.00 | 0.00 | 0.00 | 63 | 1014.6 |
| 20260905041823 | 60 | 281 | 7.0 | 11.0 | 0.00 | 0.00 | 0.00 | 63 | 1014.7 |
| 20260905041326 | 60 | 284 | 6.0 | 11.0 | 0.00 | 0.00 | 0.00 | 62 | 1014.7 |
| 20260905040333 | 61 | 285 | 8.0 | 13.0 | 0.00 | 0.00 | 0.00 | 62 | 1014.6 |
| 20260905035836 | 61 | 288 | 9.0 | 13.0 | 0.00 | 0.00 | 0.00 | 61 | 1014.5 |
| 20260905035339 | 61 | 283 | 8.0 | 12.0 | 0.00 | 0.00 | 0.00 | 60 | 1014.4 |
| 20260905034344 | 61 | 272 | 7.0 | 12.0 | 0.00 | 0.00 | 0.00 | 57 | 1014.4 |
| 20260905033847 | 61 | 268 | 8.0 | 13.0 | 0.00 | 0.00 | 0.00 | 56 | 1014.5 |
| 20260905032854 | 61 | 270 | 9.0 | 14.0 | 0.00 | 0.00 | 0.00 | 55 | 1014.3 |
| 20260905032356 | 61 | 273 | 8.0 | 14.0 | 0.00 | 0.00 | 0.00 | 55 | 1014.2 |
| 20260905031859 | 62 | 272 | 9.0 | 14.0 | 0.00 | 0.00 | 0.00 | 55 | 1014.2 |
| 20260905031403 | 62 | 278 | 10.0 | 15.0 | 0.00 | 0.00 | 0.00 | 55 | 1014.2 |
| 20260905030409 | 62 | 276 | 10.0 | 14.0 | 0.00 | 0.00 | 0.00 | 54 | 1014.1 |
| 20260905025415 | 62 | 272 | 10.0 | 14.0 | 0.00 | 0.00 | 0.00 | 52 | 1014.0 |
| 20260905024421 | 62 | 269 | 8.0 | 13.0 | 0.00 | 0.00 | 0.00 | 50 | 1014.0 |
| 20260905023924 | 63 | 269 | 10.0 | 14.0 | 0.00 | 0.00 | 0.00 | 50 | 1014.1 |
| 20260905023427 | 63 | 266 | 7.0 | 14.0 | 0.00 | 0.00 | 0.00 | 51 | 1014.1 |
| 20260905022930 | 63 | 271 | 8.0 | 13.0 | 0.00 | 0.00 | 0.00 | 52 | 1014.1 |
| 20260905022433 | 63 | 268 | 7.0 | 15.0 | 0.00 | 0.00 | 0.00 | 51 | 1014.0 |
| 20260905021936 | 64 | 274 | 7.0 | 15.0 | 0.00 | 0.00 | 0.00 | 51 | 1014.0 |
| 20260905021440 | 64 | 270 | 8.0 | 14.0 | 0.00 | 0.00 | 0.00 | 51 | 1014.0 |
| 20260905020941 | 65 | 279 | 9.0 | 14.0 | 0.00 | 0.00 | 0.00 | 51 | 1013.9 |
| 20260905015450 | 66 | 288 | 12.0 | 16.0 | 0.00 | 0.00 | 0.00 | 48 | 1013.8 |
| 20260905014457 | 68 | 277 | 7.0 | 14.0 | 0.00 | 0.00 | 0.00 | 47 | 1014.0 |
| 20260905013959 | 68 | 277 | 10.0 | 14.0 | 0.00 | 0.00 | 0.00 | 47 | 1013.9 |
| 20260905012509 | 69 | 281 | 9.0 | 16.0 | 0.00 | 0.00 | 0.00 | 46 | 1013.9 |
| 20260905012011 | 70 | 255 | 9.0 | 18.0 | 0.00 | 0.00 | 0.00 | 46 | 1013.9 |
| 20260905011017 | 70 | 278 | 8.0 | 19.0 | 0.00 | 0.00 | 0.00 | 46 | 1013.9 |
| 20260905010521 | 70 | 264 | 11.0 | 19.0 | 0.00 | 0.00 | 0.00 | 45 | 1013.8 |
| 20260905010023 | 70 | 270 | 9.0 | 19.0 | 0.00 | 0.00 | 0.00 | 45 | 1013.7 |
| 20260905005030 | 71 | 251 | 15.0 | 23.0 | 0.00 | 0.00 | 0.00 | 44 | 1013.9 |
| 20260905004533 | 71 | 255 | 12.0 | 23.0 | 0.00 | 0.00 | 0.00 | 45 | 1013.9 |
| 20260905002545 | 72 | 263 | 12.0 | 24.0 | 0.00 | 0.00 | 0.00 | 43 | 1013.6 |
| 20260905001054 | 72 | 258 | 14.0 | 24.0 | 0.00 | 0.00 | 0.00 | 44 | 1013.8 |
| 20260905000557 | 72 | 269 | 11.0 | 25.0 | 0.00 | 0.00 | 0.00 | 44 | 1013.8 |
| 20260904235603 | 73 | 249 | 17.0 | 23.0 | 0.00 | 0.00 | 0.00 | 43 | 1013.9 |
| 20260904231627 | 73 | 259 | 11.0 | 24.0 | 0.00 | 0.00 | 0.00 | 43 | 1014.0 |
| 20260904230633 | 76 | 267 | 14.0 | 22.0 | 0.00 | 0.00 | 0.00 | 39 | 1014.3 |
| 20260904225639 | 77 | 257 | 10.0 | 21.0 | 0.00 | 0.00 | 0.00 | 38 | 1014.2 |
| 20260904225142 | 77 | 260 | 10.0 | 21.0 | 0.00 | 0.00 | 0.00 | ||
| 20260904224645 | 77 | 264 | 9.0 | 23.0 | 0.00 | 0.00 | 0.00 | 36 | 1014.2 |
| 20260904223651 | 77 | 254 | 14.0 | 21.0 | 0.00 | 0.00 | 0.00 | 35 | 1014.4 |
| 20260904223154 | 77 | 261 | 10.0 | 21.0 | 0.00 | 0.00 | 0.00 | 35 | 1014.3 |
| 20260904222200 | 78 | 270 | 14.0 | 22.0 | 0.00 | 0.00 | 0.00 | 33 | 1014.5 |
| 20260904220709 | 77 | 261 | 13.0 | 19.0 | 0.00 | 0.00 | 0.00 | 32 | 1014.8 |
| 20260904220212 | 77 | 214 | 12.0 | 19.0 | 0.00 | 0.00 | 0.00 | 32 | 1014.9 |
| 20260904215218 | 78 | 262 | 12.0 | 20.0 | 0.00 | 0.00 | 0.00 | 31 | 1015.0 |
| 20260904214223 | 78 | 256 | 12.0 | 22.0 | 0.00 | 0.00 | 0.00 | 30 | 1015.1 |
| 20260904213726 | 78 | 226 | 11.0 | 22.0 | 0.00 | 0.00 | 0.00 | 31 | 1015.2 |
| 20260904213230 | 78 | 243 | 9.0 | 16.0 | 0.00 | 0.00 | 0.00 | 28 | 1015.4 |
| 20260904212733 | 78 | 263 | 10.0 | 18.0 | 0.00 | 0.00 | 0.00 | 30 | 1015.3 |
| 20260904211739 | 78 | 253 | 12.0 | 22.0 | 0.00 | 0.00 | 0.00 | 29 | 1015.3 |
| 20260904211242 | 78 | 266 | 13.0 | 20.0 | 0.00 | 0.00 | 0.00 | 29 | 1015.2 |
| 20260904210745 | 77 | 252 | 8.0 | 25.0 | 0.00 | 0.00 | 0.00 | 30 | 1015.2 |
| 20260904210248 | 77 | 248 | 10.0 | 25.0 | 0.00 | 0.00 | 0.00 | 30 | 1015.2 |
| 20260904205751 | 77 | 224 | 13.0 | 22.0 | 0.00 | 0.00 | 0.00 | 29 | 1015.2 |
| 20260904203803 | 77 | 231 | 9.0 | 21.0 | 0.00 | 0.00 | 0.00 | 27 | 1015.3 |
| 20260904203307 | 77 | 232 | 14.0 | 20.0 | 0.00 | 0.00 | 0.00 | 27 | 1014.4 |
| 20260904202809 | 77 | 260 | 13.0 | 19.0 | 0.00 | 0.00 | 0.00 | 26 | 1014.4 |
| 20260904202312 | 77 | 243 | 9.0 | 17.0 | 0.00 | 0.00 | 0.00 | 26 | 1014.4 |
| 20260904200324 | 76 | 273 | 13.0 | 20.0 | 0.00 | 0.00 | 0.00 | 25 | 1014.6 |
| 20260904195827 | 76 | 276 | 11.0 | 18.0 | 0.00 | 0.00 | 0.00 | 25 | 1014.6 |
| 20260904195330 | 76 | 238 | 9.0 | 20.0 | 0.00 | 0.00 | 0.00 | 25 | 1014.7 |
| 20260904193839 | 77 | 274 | 12.0 | 19.0 | 0.00 | 0.00 | 0.00 | 25 | 1014.7 |
| 20260904193342 | 77 | 247 | 11.0 | 20.0 | 0.00 | 0.00 | 0.00 | 26 | 1014.7 |
| 20260904192845 | 77 | 233 | 12.0 | 21.0 | 0.00 | 0.00 | 0.00 | 25 | 1014.7 |
| 20260904191851 | 76 | 278 | 12.0 | 23.0 | 0.00 | 0.00 | 0.00 | 27 | 1014.7 |
| 20260904185903 | 75 | 277 | 11.0 | 19.0 | 0.00 | 0.00 | 0.00 | 28 | 1015.0 |
| 20260904182424 | 74 | 257 | 10.0 | 16.0 | 0.00 | 0.00 | 0.00 | 28 | 1015.0 |
| 20260904173951 | 72 | 237 | 6.0 | 19.0 | 0.00 | 0.00 | 0.00 | 29 | 1015.1 |
| 20260904173454 | 71 | 270 | 12.0 | 19.0 | 0.00 | 0.00 | 0.00 | 29 | 1015.0 |
| 20260904172500 | 71 | 262 | 8.0 | 19.0 | 0.00 | 0.00 | 0.00 | 27 | 1015.1 |
| 20260904165518 | 70 | 245 | 9.0 | 18.0 | 0.00 | 0.00 | 0.00 | 24 | 1014.9 |
| 20260904165021 | 69 | 266 | 11.0 | 18.0 | 0.00 | 0.00 | 0.00 | 21 | 1014.8 |
| 20260904164027 | 69 | 271 | 12.0 | 18.0 | 0.00 | 0.00 | 0.00 | 21 | 1014.7 |
| 20260904163033 | 68 | 274 | 9.0 | 16.0 | 0.00 | 0.00 | 0.00 | 18 | 1014.6 |
| 20260904161542 | 67 | 270 | 12.0 | 17.0 | 0.00 | 0.00 | 0.00 | 14 | 1014.4 |
| 20260904161045 | 67 | 275 | 12.0 | 17.0 | 0.00 | 0.00 | 0.00 | 14 | 1014.2 |
| 20260904160548 | 67 | 278 | 13.0 | 17.0 | 0.00 | 0.00 | 0.00 | 13 | 1014.3 |
| 20260904155057 | 66 | 260 | 9.0 | 17.0 | 0.00 | 0.00 | 0.00 | 15 | 1014.1 |
| 20260904153109 | 64 | 251 | 9.0 | 15.0 | 0.00 | 0.00 | 0.00 | 15 | 1013.9 |
| 20260904152115 | 64 | 262 | 11.0 | 15.0 | 0.00 | 0.00 | 0.00 | 15 | 1013.7 |
| 20260904151618 | 64 | 247 | 9.0 | 14.0 | 0.00 | 0.00 | 0.00 | 16 | 1013.8 |
| 20260904150624 | 63 | 251 | 9.0 | 14.0 | 0.00 | 0.00 | 0.00 | 18 | 1013.7 |
| 20260904145630 | 62 | 247 | 9.0 | 15.0 | 0.00 | 0.00 | 0.00 | 18 | 1013.6 |
| 20260904145133 | 62 | 253 | 9.0 | 15.0 | 0.00 | 0.00 | 0.00 | 19 | 1013.7 |
| 20260904144139 | 61 | 255 | 7.0 | 15.0 | 0.00 | 0.00 | 0.00 | 20 | 1013.7 |
| 20260904143145 | 61 | 249 | 9.0 | 17.0 | 0.00 | 0.00 | 0.00 | 19 | 1013.6 |
| 20260904141654 | 60 | 248 | 13.0 | 19.0 | 0.00 | 0.00 | 0.00 | 20 | 1013.2 |
| 20260904135209 | 58 | 258 | 11.0 | 18.0 | 0.00 | 0.00 | 0.00 | 28 | 1013.0 |
| 20260904134215 | 58 | 252 | 13.0 | 20.0 | 0.00 | 0.00 | 0.00 | 32 | 1012.7 |
| 20260904133718 | 58 | 250 | 13.0 | 20.0 | 0.00 | 0.00 | 0.00 | 32 | 1012.6 |
| 20260904132724 | 58 | 248 | 14.0 | 22.0 | 0.00 | 0.00 | 0.00 | 34 | 1012.4 |
| 20260904131233 | 58 | 259 | 17.0 | 22.0 | 0.00 | 0.00 | 0.00 | 34 | 1012.1 |
| 20260904124748 | 58 | 262 | 16.0 | 20.0 | 0.00 | 0.00 | 0.00 | 37 | 1011.8 |
| 20260904123754 | 57 | 260 | 14.0 | 21.0 | 0.00 | 0.00 | 0.00 | 38 | 1011.9 |
| 20260904122800 | 58 | 263 | 15.0 | 21.0 | 0.00 | 0.00 | 0.00 | 38 | 1011.8 |
| 20260904122306 | 58 | 259 | 13.0 | 20.0 | 0.00 | 0.00 | 0.00 | 38 | 1011.8 |
| 20260904121806 | 58 | 257 | 13.0 | 20.0 | 0.00 | 0.00 | 0.00 | 38 | 1011.8 |
| 20260904121309 | 57 | 261 | 13.0 | 20.0 | 0.00 | 0.00 | 0.00 | 39 | 1011.8 |
| 20260904115818 | 57 | 258 | 14.0 | 22.0 | 0.00 | 0.00 | 0.00 | 44 | 1011.6 |
| 20260904115321 | 57 | 262 | 15.0 | 23.0 | 0.00 | 0.00 | 0.00 | 46 | 1011.7 |
| 20260904114824 | 57 | 266 | 16.0 | 23.0 | 0.00 | 0.00 | 0.00 | 47 | 1011.6 |
| 20260904113830 | 57 | 257 | 14.0 | 23.0 | 0.00 | 0.00 | 0.00 | 49 | 1011.7 |
| 20260904113333 | 57 | 268 | 16.0 | 23.0 | 0.00 | 0.00 | 0.00 | 50 | 1011.8 |
| 20260904112836 | 56 | 262 | 14.0 | 22.0 | 0.00 | 0.00 | 0.00 | 51 | 1011.8 |
| 20260904112339 | 56 | 260 | 14.0 | 0.0 | 0.00 | 0.00 | 0.00 | 52 | 1011.8 |
| 20260904110848 | 56 | 268 | 15.0 | 21.0 | 0.00 | 0.00 | 0.00 | 53 | 1011.9 |
| 20260904105854 | 56 | 267 | 14.0 | 21.0 | 0.00 | 0.00 | 0.00 | 53 | 1011.7 |
| 20260904105357 | 57 | 268 | 14.0 | 23.0 | 0.00 | 0.00 | 0.00 | 52 | 1011.7 |
| 20260904104900 | 57 | 270 | 14.0 | 23.0 | 0.00 | 0.00 | 0.00 | 50 | 1011.8 |
| 20260904104403 | 57 | 265 | 14.0 | 23.0 | 0.00 | 0.00 | 0.00 | 51 | 1011.8 |
| 20260904103906 | 57 | 267 | 14.0 | 23.0 | 0.00 | 0.00 | 0.00 | 50 | 1011.7 |
| 20260904103409 | 57 | 267 | 14.0 | 21.0 | 0.00 | 0.00 | 0.00 | 50 | 1011.6 |
| 20260904102912 | 57 | 264 | 14.0 | 22.0 | 0.00 | 0.00 | 0.00 | 50 | 1011.6 |
| 20260904102415 | 57 | 269 | 14.0 | 22.0 | 0.00 | 0.00 | 0.00 | 50 | 1011.7 |
| 20260904101918 | 57 | 270 | 15.0 | 22.0 | 0.00 | 0.00 | 0.00 | 50 | 1011.6 |
| 20260904100924 | 58 | 269 | 13.0 | 22.0 | 0.00 | 0.00 | 0.00 | 47 | 1011.7 |
| 20260904100427 | 57 | 273 | 15.0 | 22.0 | 0.00 | 0.00 | 0.00 | 48 | 1011.5 |
| 20260904095930 | 57 | 271 | 13.0 | 23.0 | 0.00 | 0.00 | 0.00 | 48 | 1011.5 |
| 20260904095433 | 58 | 265 | 14.0 | 23.0 | 0.00 | 0.00 | 0.00 | 49 | 1011.5 |
| 20260904094936 | 58 | 269 | 16.0 | 22.0 | 0.00 | 0.00 | 0.00 | 46 | 1011.6 |
| 20260904093942 | 58 | 272 | 16.0 | 24.0 | 0.00 | 0.00 | 0.00 | 45 | 1011.5 |
| 20260904092948 | 59 | 271 | 16.0 | 24.0 | 0.00 | 0.00 | 0.00 | 44 | 1011.5 |
| 20260904092451 | 59 | 268 | 16.0 | 26.0 | 0.00 | 0.00 | 0.00 | 41 | 1011.6 |
| 20260904091954 | 60 | 265 | 16.0 | 26.0 | 0.00 | 0.00 | 0.00 | 40 | 1011.7 |
| 20260904090504 | 59 | 268 | 17.0 | 24.0 | 0.00 | 0.00 | 0.00 | 39 | 1011.8 |
| 20260904084515 | 59 | 270 | 14.0 | 22.0 | 0.00 | 0.00 | 0.00 | 37 | 1012.1 |
| 20260904084018 | 59 | 268 | 14.0 | 23.0 | 0.00 | 0.00 | 0.00 | 37 | 1012.0 |
| 20260904083024 | 60 | 271 | 16.0 | 24.0 | 0.00 | 0.00 | 0.00 | 36 | 1012.1 |
| 20260904082527 | 60 | 272 | 16.0 | 24.0 | 0.00 | 0.00 | 0.00 | 34 | 1012.0 |
| 20260904081533 | 60 | 263 | 15.0 | 22.0 | 0.00 | 0.00 | 0.00 | 31 | 1012.3 |
| 20260904081036 | 60 | 256 | 15.0 | 23.0 | 0.00 | 0.00 | 0.00 | 30 | 1012.3 |